Probability
0 0 0 0 0 0 0 0 0 0 0 0 0 0 0 0 0 0 0 0 0 0 0 0 0 0 0 0 0 0 0 0 0 0 0 0 0 0 0 0 0 0 0
0 0 0 0 0 0 0 0 0 0 0 0 0 0 0 0 0 0 0 0 0 0 0 0 0 0 0 0 0 0 0 0 0 0 0 0 0 0 0 0 0 0 0
0 0 0 0 0 0 0 0 0 0 0 0 0 0 0 0 0 0 0 0 0 0 0 0 0 0 0 0 0 0 0 0 0 0 0 0 0 0 0 0 0 0 0
0 0 0 0 0 0 0 0 0 0 0 0 0 0 0 0 0 0 0 0 0 0 0 0 0 0 0 0 0 0 0 0 0 0 0 0 0 0 0 0 0 0 0
0 0 0 0 0 0 0 0 0 0 0 0 0 0 0 0 0 0 0 0 0 0 0 0 0 0 0 0 0 0 0 0 0 0 0 0 0 0 0 0 0 0 0
0 0 0 0 0 0 0 0 0 0 0 0 0 0 0 0 0 0 0 0 0 0 0 0 0 0 0 0 0 0 0 0 0 0 0 0 0 0 0 0 0 0 0
0 0 0 0 0 0 0 0 0 0 0 0 0 0 0 0 0 0 0 0 0 0 0 0 0 0 0 0 0 0 0 0 0 0 0 0 0 0 0 0 0 0 0
0 0 0 0 0 0 0 0 0 0 0 0 0 0 0 0 0 0 0 0 0 0 0 0 0 0 0 0 0 0 0 0 0 0 0 0 0 0 0 0 0 0 0
0 0 0 0 0 0 0 0 0 0 0 0 0 0 0 0 0 0 0 0 0 0 0 0 0 0 0 0 0 0 0 0 0 0 0 0 0 0 0 0 0 0 0
0 0 0 0 0 0 0 0 0 0 0 0 0 0 0 0 0 0 0 0 0 0 0 0 0 0 0 0 0 0 0 0 0 0 0 0 0 0 0 0 0 0 0
0 0 0 0 0 0 0 0 0 0 0 0 0 0 0 0 0 0 0 0 0 0 0 0 0 0 0 0 0 0 0 0 0 0 0 0 0 0 0 0 0 0 0
0 0 0 0 0 0 0 0 0 0 0 0 0 0 0 0 0 0 0 0 0 0 0 0 0 0 0 0 0 0 0 0 0 0 0 0 0 0 0 0 0 0 0
0 0 0 0 0 0 0 0 0 0 0 0 0 0 0 0 0 0 0 0 0 0 0 0 0 0 0 0 0 0 0 0 0 0 0 0 0 0 0 0 0 0 0
0 0 0 0 0 0 0 0 0 0 0 0 0 0 0 0 0 0 0 0 0 0 0 0 0 0 0 0 0 0 0 0 0 0 0 0 0 0 0 0 0 0 0
0 0 0 0 0 0 0 0 0 0 0 0 0 0 0 0 0 0 0 0 0 0 0 0 0 0 0 0 0 0 0 0 0 0 0 0 0 0 0 0 0 0 0
0 0 0 0 0 0 0 0 0 0 0 0 0 0 0 0 0 0 0 0 0 0 0 0 0 0 0 0 0 0 0 0 0 0 0 0 0 0 0 0 0 0 0
0 0 0 0 0 0 0 0 0 0 0 0 0 0 0 0 0 0 0 0 0 0 0 0 0 0 0 0 0 0 0 0 0 0 0 0 0 0 0 0 0 0 0
0 0 0 0 0 0 0 0 0 0 0 0 0 0 0 0 0 0 0 0 0 0 0 0 0 0 0 0 0 0 0 0 0 0 0 0 0 0 0 0 0 0 0
0 0 0 0 0 0 0 0 0 0 0 0 0 0 0 0 0 0 0 0 0 0 0 0 0 0 0 0 0 0 0 0 0 0 0 0 0 0 0 0 0 0 0
0 0 0 0 0 0 0 0 0 0 0 0 0 0 0 0 0 0 0 0 0 0 0 0 0 0 0 0 0 0 0 0 0 0 0 0 0 0 0 0 0 0 0
0 0 0 0 0 0 0 0 0 0 0 0 0 0 0 0 0 0 0 0 0 0 0 0 0 0 0 0 0 0 0 0 0 0 0 0 0 0 0 0 0 0 0
0 0 0 0 0 0 0 0 0 0 0 0 0 0 0 0 0 0 0 0 0 0 0 0 0 0 0 0 0 0 0 0 0 0 0 0 0 0 0 0 0 0 0
0 0 0 0 0 0 0 0 0 0 0 0 0 0 0 0 0 0 0 0 0 0 0 0 0 0 0 0 0 0 0 0 0 0 0 0 0 0 0 0 0 0 0
0 0 0 0 0 0 0 0 0 0 0 0 0 0 0 0 0 0 0 0 0 0 0 0 0 0 0 0 0 0 0 0 0 0 0 0 0 0 0 0 0 0 0
0 0 0 0 0 0 0 0 0 0 0 0 0 0 0 0 0 0 0 0 0 0 0 0 0 0 0 0 0 0 0 0 0 0 0 0 0 0 0 0 0 0 0
0 0 0 0 0 0 0 0 0 0 0 0 0 0 0 0 0 0 0 0 0 0 0 0 0 0 0 0 0 0 0 0 0 0 0 0 0 0 0 0 0 0 0
Wind_Speed
4 4 3 2 2 2 2 1 1 0 1 1 2 2 2 2 2 1 1 2 2 4 6 7 8 8 9 9 10 10 11 11 12 12 12 13 13 13 13 13 13 13 14
5 4 3 3 3 2 2 2 1 1 1 1 2 2 2 2 2 1 0 1 3 4 5 7 7 8 9 9 10 10 11 12 12 12 12 13 13 13 14 14 14 14 14
6 5 4 3 3 3 3 2 1 1 1 2 2 3 2 2 2 1 1 1 1 3 4 5 6 8 9 9 10 11 12 12 12 12 13 13 13 14 14 14 15 15 15
7 5 4 3 3 3 2 2 1 1 2 2 2 2 2 2 2 1 1 1 1 1 3 4 6 7 8 10 11 12 12 12 12 12 13 13 14 14 15 15 15 15 15
7 6 4 4 4 3 2 2 2 2 1 1 2 2 2 2 2 1 2 2 1 1 1 3 5 7 8 10 11 12 12 12 13 13 13 13 14 14 15 15 16 16 16
7 6 4 5 5 4 3 2 2 2 1 1 2 3 3 3 2 2 2 2 2 2 2 2 3 4 8 10 12 13 13 13 13 13 13 14 15 15 16 16 16 17 17
8 7 5 5 5 4 4 4 3 2 1 1 2 3 4 3 3 2 2 2 2 3 3 2 2 2 3 8 11 12 13 13 13 13 14 14 15 16 16 16 17 17 17
8 7 7 6 5 4 4 4 3 2 1 2 2 2 3 4 3 3 2 2 2 2 3 3 3 3 2 2 6 11 11 13 14 14 14 15 16 16 17 17 17 18 18
9 8 8 7 6 5 5 4 4 5 2 1 1 3 2 2 3 3 2 2 2 2 2 3 3 4 3 2 3 7 11 12 14 15 15 16 16 17 17 18 18 18 19
9 8 8 8 7 5 5 5 4 4 4 2 1 1 2 3 2 2 3 2 3 2 3 3 4 4 4 3 4 9 11 13 14 15 16 17 17 18 18 19 19 19 19
8 8 8 8 7 5 6 6 5 4 3 4 3 2 1 1 2 2 3 4 4 3 3 4 3 3 3 3 3 7 12 14 15 16 17 18 18 19 19 20 20 20 20
5 7 8 7 7 6 6 6 5 5 4 4 3 3 3 3 2 3 3 4 4 4 3 3 3 2 2 2 4 12 14 16 17 17 18 18 19 20 20 20 20 21 21
5 8 7 7 7 6 6 6 5 5 5 4 4 3 3 3 3 3 2 3 3 4 3 2 3 2 2 1 4 13 14 17 18 19 19 19 19 20 20 21 21 21 21
7 9 8 8 7 7 7 6 4 4 4 4 4 4 2 3 3 3 3 2 2 3 3 4 3 3 2 2 6 13 8 16 18 19 19 19 19 20 20 21 21 22 22
6 9 9 8 8 8 7 7 4 4 4 4 4 4 3 3 3 3 3 3 3 3 5 4 3 3 3 3 8 5 5 14 18 19 19 19 20 20 21 21 21 21 21
8 10 9 9 8 7 7 6 5 4 5 4 3 4 3 2 3 3 3 3 4 4 5 4 4 4 5 6 11 6 6 17 18 19 20 20 20 21 21 21 21 21 22
10 11 10 9 9 8 7 6 6 5 5 4 4 4 5 4 3 3 3 3 4 4 7 6 4 4 5 6 7 5 6 6 7 18 20 21 21 21 21 21 21 21 22
10 10 10 9 9 8 8 8 7 6 6 6 5 5 5 3 4 3 3 4 4 5 5 9 5 4 5 6 6 6 6 6 5 15 20 21 21 21 22 21 22 22 21
10 9 9 10 9 9 8 7 7 7 6 6 6 6 5 4 5 4 4 5 4 5 5 6 7 4 4 4 5 6 7 6 7 11 16 18 20 21 22 22 22 22 22
10 10 9 9 9 8 8 7 6 6 6 5 5 5 5 6 6 6 5 6 5 5 5 6 7 5 4 5 4 5 6 4 6 8 12 14 18 20 21 21 22 22 22
10 9 8 7 7 7 7 7 6 6 6 5 5 5 6 8 10 8 6 5 5 5 5 5 6 5 5 4 4 4 7 6 6 6 6 7 8 7 9 15 19 20 22
8 8 8 8 7 6 10 12 8 6 6 6 6 6 6 7 10 13 15 13 10 7 5 5 5 6 7 5 5 5 6 7 6 3 3 6 5 6 7 6 15 21 21
7 7 7 7 7 7 10 12 11 6 6 6 6 5 5 6 9 6 10 14 12 15 14 9 7 7 7 6 6 7 7 7 8 5 5 7 4 6 6 9 18 20 19
7 7 7 7 6 6 10 10 10 6 5 5 6 6 6 6 6 7 6 6 7 8 10 7 7 8 8 7 7 8 8 8 7 5 4 6 5 5 7 6 15 17 16
6 5 6 6 6 5 8 9 7 3 4 5 5 5 5 6 11 13 7 6 7 7 11 15 16 15 18 18 14 6 5 6 7 4 3 3 4 5 5 5 8 13 15
5 5 5 5 5 5 7 7 6 3 3 4 4 5 8 9 12 13 6 5 7 7 6 7 9 11 10 11 15 7 4 6 6 4 2 2 3 3 5 3 3 4 7
Wind_Direction
180 183 192 194 197 191 195 202 228 295 359 3 14 22 4 357 357 349 316 339 22 17 7 11 11 9 5 5 4 2 359 355 353 350 347 344 342 341 339 333 328 326 323
177 179 184 188 192 188 186 175 168 116 42 24 16 14 8 3 4 3 350 14 41 37 25 21 15 10 7 5 3 2 359 354 350 347 344 341 339 336 333 331 329 327 324
179 175 175 181 186 176 159 138 114 82 54 33 15 3 3 357 359 12 62 66 44 47 41 31 18 10 4 1 0 358 356 350 347 343 340 338 337 334 331 328 326 324 321
177 169 168 177 173 150 138 133 112 85 51 31 350 334 341 343 349 3 75 101 83 41 24 27 17 7 2 357 354 353 350 346 344 342 340 338 336 333 330 327 325 322 320
173 165 167 169 155 136 133 131 99 109 80 355 322 334 344 343 339 23 70 85 85 68 26 13 15 8 0 353 350 347 343 342 341 340 339 337 335 332 329 327 324 322 319
169 161 160 159 149 136 135 128 115 89 87 1 347 354 349 347 18 48 60 59 59 61 51 35 18 3 0 354 349 343 340 339 337 337 337 335 333 331 329 327 324 322 319
167 161 157 156 153 152 158 149 127 105 60 33 39 2 350 5 37 33 30 46 46 44 45 32 13 358 342 351 347 343 339 335 334 334 333 332 331 329 327 325 324 322 319
168 166 162 162 159 149 149 147 135 125 88 65 105 73 6 349 350 4 8 33 28 21 18 4 352 338 322 320 329 341 337 336 333 331 331 331 328 327 325 324 323 321 321
168 166 167 161 161 156 161 162 151 144 145 80 104 136 138 230 303 323 340 358 354 2 348 332 332 324 317 313 310 325 332 332 329 329 329 328 326 324 323 323 322 320 319
168 167 165 162 163 159 159 162 155 147 142 153 119 104 153 161 167 306 315 317 325 323 315 315 317 312 314 313 312 323 328 326 326 326 326 325 323 321 321 320 319 317 315
170 168 164 162 162 160 161 157 152 151 150 158 166 159 133 106 154 179 278 307 315 291 286 289 292 301 312 318 311 320 329 327 324 323 323 321 320 319 317 317 315 314 312
170 172 165 164 164 162 164 163 161 160 160 158 163 165 165 171 187 182 230 274 293 290 288 280 278 285 304 321 326 333 330 325 322 320 319 317 317 316 314 313 312 311 309
178 181 168 168 167 166 165 159 159 165 165 166 176 183 184 190 177 172 198 254 281 295 302 292 264 264 294 319 317 327 324 321 318 317 315 314 313 312 311 310 309 307 307
182 174 171 170 168 165 164 160 158 170 169 176 186 185 189 201 183 179 184 197 287 295 288 277 284 258 272 292 303 320 313 315 314 313 313 312 311 309 308 308 307 305 305
170 171 171 170 168 167 165 162 168 176 175 186 192 195 198 209 200 198 191 179 191 271 286 268 272 268 265 282 298 297 286 303 311 313 311 310 309 308 306 306 305 305 304
171 170 171 171 170 170 169 166 170 179 181 193 192 198 214 217 217 209 206 206 197 212 260 261 252 260 276 289 298 299 286 305 310 309 308 307 306 306 306 305 304 304 304
172 175 175 173 174 175 174 174 183 181 190 202 203 206 224 221 224 226 220 218 218 210 256 274 256 267 272 276 287 283 279 281 287 303 306 306 306 306 306 305 304 304 304
176 176 172 173 177 179 179 182 188 190 195 205 212 214 231 230 235 234 229 233 234 225 241 276 282 274 265 268 272 277 285 289 281 299 305 306 306 306 305 304 304 303 304
172 172 172 177 181 182 184 189 190 195 202 208 209 215 228 225 241 243 241 243 247 252 242 264 281 272 266 269 278 280 280 282 285 295 302 303 303 304 304 304 305 306 306
170 174 178 181 182 183 185 188 190 197 206 213 215 219 225 224 236 243 249 248 252 257 258 264 276 278 268 265 268 280 291 277 282 289 291 296 299 302 303 304 305 305 304
172 172 173 176 179 182 189 187 191 196 204 218 226 229 233 240 247 253 258 252 248 255 262 268 276 282 279 280 274 271 288 290 276 267 271 281 288 286 291 296 301 300 300
166 167 175 179 185 195 202 201 194 195 203 215 232 240 246 252 262 271 276 278 274 271 269 265 274 275 277 269 270 275 285 297 294 261 263 277 272 276 279 276 291 298 301
167 172 178 181 192 203 203 207 207 198 207 218 228 238 253 257 270 264 276 285 287 286 284 281 277 275 277 270 272 276 273 276 280 280 280 283 270 274 278 288 297 300 303
170 176 181 186 190 204 207 213 213 206 215 226 230 233 242 254 260 268 260 264 262 268 277 280 263 266 267 268 259 269 277 281 271 267 261 278 280 277 286 283 293 300 308
171 176 179 181 188 209 213 217 213 198 221 238 241 240 246 251 269 281 279 269 272 271 281 284 285 288 292 298 300 297 295 296 297 286 247 253 280 292 282 274 287 304 315
170 169 175 182 188 203 216 219 216 193 222 243 250 252 259 267 277 286 279 268 275 276 273 284 288 294 297 298 301 295 282 286 292 292 265 264 280 304 301 278 278 295 306